Weather History for Denver, CO

Change the Weather History Date:

Friday, February 1, 2013

  Actual Average (KDEN) Record (KDEN)
Temperature  
Mean Temperature 35 °F 31 °F  
Max Temperature 44 °F 44 °F 73 °F (1934)
Min Temperature 26 °F 17 °F -25 °F (1951)
Degree Days  
Heating Degree Days 30 34  
Month to date heating degree days 34  
Since 1 July heating degree days 3565  
Cooling Degree Days 0 0  
Month to date cooling degree days 0  
Year to date cooling degree days 0  
Moisture  
Dew Point 21 °F    
Average Humidity 69    
Maximum Humidity 80    
Minimum Humidity 37    
Precipitation  
Precipitation 0.00 in 0.01 in 0.31 in (1886)
Month to date precipitation 0.01  
Year to date precipitation 0.42  
Snow  
Snow 0.00 in - - ()
Month to date snowfall  
Since 1 July snowfall  
Snow Depth -    
Sea Level Pressure  
Sea Level Pressure 30.09 in    
Wind  
Wind Speed 6 mph (SSW)    
Max Wind Speed 10 mph    
Max Gust Speed -    
Visibility 10 miles    
Events      
T = Trace of Precipitation, MM = Missing Value Source: NWS Daily Summary

Daily Weather History Graph

Daily Weather History Graph

Search for Another Location

Airport:

Trip Planner

Search our weather history database for the weather conditions in past years. The results will help you decide how hot, cold, wet, or windy it might be!

Date:

Astronomy

Feb. 01, 2013 Rise Set
Actual Time 7:05 AM MST 5:18 PM MST
Civil Twilight 6:37 AM MST 5:46 PM MST
Nautical Twilight 6:05 AM MST 6:18 PM MST
Astronomical Twilight 5:33 AM MST 6:50 PM MST
Moon 11:27 PM MST (2/1) 9:41 AM MST (2/1)
Length of Visible Light 11h 09m
Length of Day
10h 12m
Waning Gibbous, 69% of the Moon is Illuminated
Feb 1
Waning Gibbous
Feb 3
Last Quarter
Feb 10
New
Feb 17
First Quarter
Feb 25
Full

Hourly Weather History & Observations

Time (MST) Temp. Windchill Dew Point Humidity Pressure Visibility Wind Dir Wind Speed Gust Speed Precip Events Conditions
12:07 AM 30.2 °F 21.9 °F 23.0 °F 75% 30.09 in 10.0 mi SSW 9.2 mph - N/A   Clear
12:27 AM 32.0 °F 24.8 °F 21.2 °F 64% 30.09 in 10.0 mi SSW 8.1 mph - N/A   Clear
12:47 AM 32.0 °F - 21.2 °F 64% 30.08 in 10.0 mi Calm Calm - N/A   Clear
1:07 AM 30.2 °F 25.4 °F 21.2 °F 69% 30.08 in 10.0 mi SW 4.6 mph - N/A   Clear
1:27 AM 32.0 °F 27.5 °F 21.2 °F 64% 30.07 in 10.0 mi WSW 4.6 mph - N/A   Clear
1:47 AM 32.0 °F 25.6 °F 21.2 °F 64% 30.08 in 10.0 mi SW 6.9 mph - N/A   Clear
2:07 AM 32.0 °F 26.4 °F 21.2 °F 64% 30.07 in 10.0 mi WSW 5.8 mph - N/A   Clear
2:27 AM 32.0 °F 24.8 °F 21.2 °F 64% 30.07 in 10.0 mi SW 8.1 mph - N/A   Clear
2:47 AM 32.0 °F 26.4 °F 21.2 °F 64% 30.07 in 10.0 mi WSW 5.8 mph - N/A   Clear
3:07 AM 33.8 °F 28.6 °F 21.2 °F 60% 30.07 in 10.0 mi SW 5.8 mph - N/A   Clear
3:27 AM 33.8 °F 28.6 °F 21.2 °F 60% 30.07 in 10.0 mi SW 5.8 mph - N/A   Clear
3:47 AM 30.2 °F 26.7 °F 23.0 °F 75% 30.06 in 10.0 mi SW 3.5 mph - N/A   Clear
4:06 AM 32.0 °F 28.7 °F 21.2 °F 64% 30.06 in 10.0 mi SSW 3.5 mph - N/A   Clear
4:27 AM 26.6 °F 22.6 °F 21.2 °F 80% 30.06 in 10.0 mi South 3.5 mph - N/A   Clear
4:47 AM 26.6 °F 20.0 °F 21.2 °F 80% 30.06 in 10.0 mi South 5.8 mph - N/A   Clear
5:07 AM 26.6 °F 20.0 °F 21.2 °F 80% 30.05 in 10.0 mi South 5.8 mph - N/A   Clear
5:27 AM 26.6 °F 19.1 °F 21.2 °F 80% 30.04 in 10.0 mi South 6.9 mph - N/A   Clear
5:47 AM 28.4 °F 21.2 °F 21.2 °F 74% 30.06 in 10.0 mi SSW 6.9 mph - N/A   Clear
6:07 AM 28.4 °F 23.3 °F 19.4 °F 69% 30.05 in 10.0 mi South 4.6 mph - N/A   Clear
6:27 AM 26.6 °F 19.1 °F 19.4 °F 74% 30.05 in 10.0 mi South 6.9 mph - N/A   Clear
6:47 AM 26.6 °F - 19.4 °F 74% 30.06 in 10.0 mi Calm Calm - N/A   Clear
7:06 AM 26.6 °F 21.2 °F 19.4 °F 74% 30.06 in 10.0 mi South 4.6 mph - N/A   Clear
7:08 AM 26.6 °F 22.6 °F 19.4 °F 74% 30.06 in 10.0 mi South 3.5 mph - N/A   Clear
7:50 AM 28.4 °F 21.2 °F 19.4 °F 69% 30.06 in 50.0 mi South 6.9 mph - N/A   Scattered Clouds
8:50 AM 37.4 °F 32.8 °F 23.0 °F 56% 30.06 in 50.0 mi South 5.8 mph - N/A   Partly Cloudy
9:47 AM 44.6 °F 40.7 °F 19.4 °F 37% 30.06 in 50.0 mi NW 6.9 mph - N/A   Partly Cloudy
9:27 PM 33.8 °F 30.8 °F 23.0 °F 65% 30.16 in 10.0 mi NNE 3.5 mph - N/A   Clear
9:47 PM 33.8 °F 30.8 °F 23.0 °F 65% 30.17 in 10.0 mi ENE 3.5 mph - N/A   Clear
10:07 PM 32.0 °F - 23.0 °F 69% 30.18 in 10.0 mi Calm Calm - N/A   Clear
10:27 PM 30.2 °F 26.7 °F 23.0 °F 75% 30.18 in 10.0 mi SSE 3.5 mph - N/A   Clear
10:47 PM 30.2 °F 25.4 °F 23.0 °F 75% 30.18 in 10.0 mi ESE 4.6 mph - N/A   Clear
11:07 PM 26.6 °F 16.8 °F 21.2 °F 80% 30.19 in 10.0 mi SSE 10.4 mph - N/A   Clear
11:27 PM 28.4 °F 20.4 °F 23.0 °F 80% 30.19 in 10.0 mi SE 8.1 mph - N/A   Clear
11:47 PM 28.4 °F 21.2 °F 23.0 °F 80% 30.20 in 10.0 mi South 6.9 mph - N/A   Clear